Volver al catálogo

ONEWEB-0024

ActivoComunicacionesPO
NORAD 45137·PAYLOAD·🇬🇧 United Kingdom

Lanzado Feb 6, 2020 desde Baikonur Cosmodrome

Loading…

Próximos Pases (próximas 24 horas)

TLE

ActualizadoSource: CelesTrak SupGP

Época: Sep 15, 2026, 00:01 UTC

1 45137C 20008G   26258.00121944 -.00002529  00000+0 -72543-2 0  2584
2 45137  87.8926  18.3838 0001715  99.2490 298.9280 13.10379533    14

Sigue ONEWEB-0024 en tiempo real con AllMySat

Download on the App Store